[[{"header":{"parameterUnit":"m.s-1","parameterCategory":1,"la1":30.2991,"la2":30.254,"lo1":-89.0895,"lo2":-89.0444,"dy":0.0017,"dx":0.0017,"nx":28,"ny":28,"refTime":"2024-05-21T21:00:00:Z","depth":0,"parameterNumber":2,"parameterNumberName":"U-component_of_WINDS"},"data":[0,0,0,0,0,0,0,0,0,0,0,0,0,0,0,0,0,0,0,0,0,0,0,0,0,0,0,0,0,0,0,0,0,0,0,0,0,0,0,0,0,0,0,0,0,0,0,0,0,0,0,0,0,0,0,0,0,0,-1.2322,-1.2322,0,-1.2315,-1.2315,-1.2315,-1.2304,-1.2304,-1.2304,-1.2303,-1.2297,-1.2297,-1.2297,0,0,0,0,0,0,0,0,0,0,0,0,0,-1.2324,-1.2324,-1.2322,-1.2322,-1.2322,-1.2315,-1.2315,-1.2315,-1.2304,-1.2304,-1.2304,-1.2303,-1.2297,-1.2297,-1.2297,0,0,0,0,0,0,0,0,0,0,0,0,0,-1.2321,-1.2324,-1.2322,-1.2315,-1.2315,-1.2315,-1.2315,-1.2315,-1.2304,-1.2304,-1.2303,-1.2303,-1.2297,-1.2297,-1.2297,-1.2304,0,0,-1.2297,-1.2297,0,0,0,0,0,0,0,0,-1.2321,-1.2321,-1.2316,-1.2316,-1.2315,-1.231,-1.2314,-1.2311,-1.2304,-1.2308,-1.2303,-1.2303,-1.2302,-1.2301,-1.2301,-1.2303,-1.2303,-1.2297,-1.2297,-1.2297,-1.2297,0,0,0,0,0,0,0,-1.2321,-1.2321,-1.2319,-1.2316,-1.2315,-1.2313,-1.2312,-1.2313,-1.2307,-1.2308,-1.2307,-1.2306,-1.2301,-1.2301,-1.23,-1.2303,-1.2297,-1.2297,-1.2297,-1.2297,-1.2311,-1.2311,0,0,0,0,0,0,-1.2323,-1.2321,-1.2319,-1.2319,-1.2317,-1.2313,-1.2312,-1.2312,-1.2307,-1.2306,-1.2307,-1.2306,-1.2301,-1.23,-1.23,-1.2308,-1.2297,-1.2297,-1.2297,-1.2311,-1.2311,-1.2312,0,0,0,0,0,0,-1.2323,-1.2322,-1.232,-1.232,-1.2319,-1.2313,-1.2313,-1.2312,-1.2312,-1.2306,-1.2305,-1.2307,-1.2301,-1.23,-1.2303,-1.2307,-1.2297,-1.2297,-1.231,-1.2311,-1.2311,-1.2323,0,0,0,0,0,0,-1.2323,-1.2323,-1.2325,-1.232,-1.2319,-1.2323,-1.2314,-1.2312,-1.2312,-1.2311,-1.2306,-1.2305,-1.23,-1.2303,-1.2303,-1.2307,-1.2297,-1.231,-1.2311,-1.2311,-1.2322,-1.2324,-1.2325,0,0,0,0,0,-1.2323,-1.2329,-1.2325,-1.2325,-1.2322,-1.2323,-1.2322,-1.2317,-1.2312,-1.2315,-1.2311,-1.2305,-1.2307,-1.2303,-1.2303,-1.2308,-1.231,-1.231,-1.2311,-1.2322,-1.2324,-1.2325,0,0,0,0,0,0,-1.2334,-1.2328,-1.2324,-1.2328,-1.2326,-1.2321,-1.2324,-1.2319,-1.2318,-1.2317,-1.231,-1.2309,-1.2313,-1.2311,-1.2307,-1.2314,-1.2307,-1.2308,-1.2315,-1.2317,-1.2319,-1.2319,-1.2297,0,0,0,0,0,-1.2337,-1.2338,-1.2332,-1.2337,-1.2336,-1.233,-1.233,-1.2326,-1.2323,-1.2322,-1.2319,-1.2317,-1.2317,-1.2317,-1.2317,-1.2322,-1.2321,-1.2325,-1.2327,-1.2328,-1.2329,-1.2332,-1.2333,-1.2314,-1.2314,-1.2314,0,0,-1.2343,-1.234,-1.2341,-1.2339,-1.2337,-1.2338,-1.2329,-1.2331,-1.2332,-1.2323,-1.2325,-1.2322,-1.232,-1.2324,-1.2325,-1.2322,-1.2334,-1.2329,-1.233,-1.233,-1.2333,-1.2334,-1.2336,-1.2315,-1.2315,-1.2314,0,0,-1.2355,-1.2353,-1.2356,-1.2354,-1.2351,-1.2347,-1.2348,-1.2343,-1.2341,-1.2344,-1.2337,-1.2338,-1.2338,-1.2336,-1.2336,-1.2347,-1.2342,-1.2347,-1.2355,-1.2358,-1.236,-1.2361,-1.2365,-1.2367,-1.2348,-1.2348,-1.2348,0,-1.2363,-1.2364,-1.2358,-1.236,-1.236,-1.2352,-1.2355,-1.2353,-1.2351,-1.235,-1.2346,-1.2347,-1.2344,-1.2348,-1.2351,-1.235,-1.2351,-1.2348,-1.236,-1.2361,-1.2362,-1.2366,-1.2368,-1.2349,-1.2349,-1.2349,-1.2349,0,-1.2375,-1.2376,-1.2379,-1.2376,-1.2376,-1.2379,-1.2373,-1.2373,-1.2369,-1.2366,-1.2369,-1.2365,-1.2364,-1.2365,-1.2361,-1.2368,-1.2366,-1.2361,-1.2354,-1.2365,-1.2369,-1.237,-1.235,-1.2349,-1.2349,-1.2349,0,0,-1.2393,-1.2387,-1.2389,-1.2387,-1.2383,-1.2384,-1.2387,-1.2386,-1.2386,-1.2385,-1.2386,-1.2387,-1.2383,-1.2382,-1.2377,-1.238,-1.2389,-1.2375,-1.2374,-1.2378,-1.2397,-1.2401,-1.2403,-1.2386,-1.2386,-1.2386,-1.2398,0,-1.2404,-1.2408,-1.2403,-1.2408,-1.2409,-1.2401,-1.2403,-1.2401,-1.2398,-1.2398,-1.2395,-1.2396,-1.239,-1.2389,-1.2391,-1.2388,-1.2393,-1.2387,-1.2388,-1.2388,-1.2389,-1.2405,-1.2409,-1.2419,-1.2399,-1.2399,-1.2399,0,-1.2418,-1.2417,-1.2422,-1.2418,-1.2418,-1.242,-1.2419,-1.2419,-1.2417,-1.2414,-1.2413,-1.2408,-1.2411,-1.2404,-1.2407,-1.2403,-1.2403,-1.2401,-1.2401,-1.2401,-1.2394,-1.2405,-1.2423,-1.2424,-1.2401,-1.2401,-1.2401,0,-1.2431,-1.2431,-1.2434,-1.2433,-1.2428,-1.243,-1.2428,-1.2425,-1.2425,-1.2424,-1.2424,-1.2423,-1.2423,-1.2422,-1.2417,-1.2413,-1.2421,-1.2414,-1.2419,-1.2419,-1.2421,-1.2421,-1.2439,-1.2421,-1.2421,-1.2421,-1.2421,0,-1.2444,-1.2448,-1.244,-1.2442,-1.2446,-1.2439,-1.2443,-1.2441,-1.2438,-1.2439,-1.2433,-1.2434,-1.2427,-1.2428,-1.2424,-1.2427,-1.2427,-1.2425,-1.2424,-1.2426,-1.2426,-1.2426,-1.2425,-1.2421,-1.2421,-1.2421,-1.2421,0,-1.246,-1.2455,-1.2458,-1.2453,-1.2452,-1.2455,-1.2451,-1.2452,-1.2449,-1.2451,-1.2451,-1.2445,-1.2446,-1.2441,-1.244,-1.2437,-1.2442,-1.244,-1.2443,-1.2443,-1.2448,-1.2448,-1.2466,-1.2469,-1.2449,-1.2449,-1.245,0,-1.2469,-1.2471,-1.2467,-1.2467,-1.2465,-1.2466,-1.2466,-1.246,-1.246,-1.2457,-1.2459,-1.2459,-1.2459,-1.246,-1.2456,-1.2456,-1.2453,-1.246,-1.2453,-1.2455,-1.2453,-1.2453,-1.2454,-1.2461,-1.2461,-1.2462,-1.2462,0,-1.2485,-1.2482,-1.2482,-1.2481,-1.2481,-1.248,-1.2479,-1.248,-1.2473,-1.2473,-1.2474,-1.2473,-1.2473,-1.2473,-1.2472,-1.247,-1.2465,-1.2464,-1.2465,-1.2467,-1.2469,-1.2468,-1.2447,-1.2464,-1.2463,-1.2463,-1.2463,-1.2463,-1.2498,-1.25,-1.2497,-1.2497,-1.2495,-1.2494,-1.2495,-1.2492,-1.2492,-1.2491,-1.2487,-1.2488,-1.2486,-1.2484,-1.2482,-1.2483,-1.248,-1.2482,-1.2482,-1.2483,-1.2484,-1.2469,-1.2483,-1.2483,-1.2483,-1.2483,-1.2483,0,-1.2514,-1.2512,-1.2512,-1.251,-1.251,-1.2505,-1.2503,-1.2504,-1.2505,-1.2503,-1.2502,-1.2503,-1.2503,-1.2499,-1.2498,-1.25,-1.2497,-1.25,-1.25,-1.2499,-1.2486,-1.2486,-1.2502,-1.2502,-1.2502,-1.2502,-1.2502,-1.2502,-1.2522,-1.2525,-1.2522,-1.2524,-1.2522,-1.2523,-1.2522,-1.2521,-1.252,-1.252,-1.252,-1.2518,-1.2515,-1.2514,-1.2514,-1.2513,-1.2513,-1.2516,-1.2514,-1.2502,-1.25,-1.2499,-1.2498,-1.2516,-1.2516,-1.2527,-1.2527,-1.2527]},{"header":{"parameterUnit":"m.s-1","parameterCategory":1,"la1":30.2991,"la2":30.254,"lo1":-89.0895,"lo2":-89.0444,"dy":0.0017,"dx":0.0017,"nx":28,"ny":28,"refTime":"2024-05-21T21:00:00:Z","depth":0,"parameterNumber":3,"parameterNumberName":"V-component_of_WINDS"},"data":[0,0,0,0,0,0,0,0,0,0,0,0,0,0,0,0,0,0,0,0,0,0,0,0,0,0,0,0,0,0,0,0,0,0,0,0,0,0,0,0,0,0,0,0,0,0,0,0,0,0,0,0,0,0,0,0,0,0,4.2878,4.2879,0,4.2934,4.2935,4.2936,4.2901,4.2899,4.2897,4.2896,4.2949,4.2952,4.2955,0,0,0,0,0,0,0,0,0,0,0,0,0,4.2738,4.2741,4.2878,4.2879,4.288,4.2934,4.2935,4.2936,4.2901,4.2899,4.2897,4.2895,4.2948,4.2952,4.2955,0,0,0,0,0,0,0,0,0,0,0,0,0,4.2797,4.2742,4.2878,4.2869,4.2869,4.2934,4.2935,4.2936,4.2901,4.2899,4.2896,4.2894,4.2947,4.2951,4.2956,4.3032,0,0,4.2969,4.2971,0,0,0,0,0,0,0,0,4.2794,4.2802,4.287,4.287,4.287,4.2908,4.2905,4.2968,4.2902,4.2889,4.2896,4.2893,4.2937,4.2942,4.2958,4.3035,4.3037,4.297,4.2972,4.2974,4.2976,0,0,0,0,0,0,0,4.279,4.28,4.29,4.2871,4.2871,4.2861,4.2867,4.2917,4.2926,4.289,4.2887,4.2895,4.2937,4.2954,4.2959,4.3038,4.297,4.2974,4.2976,4.2978,4.318,4.3182,0,0,0,0,0,0,4.2787,4.2796,4.2898,4.2902,4.2825,4.2866,4.2872,4.2898,4.2925,4.2927,4.2897,4.2893,4.2948,4.2954,4.2961,4.3052,4.2974,4.2978,4.2981,4.3177,4.318,4.3183,0,0,0,0,0,0,4.2784,4.2796,4.2896,4.2849,4.2861,4.2871,4.29,4.2901,4.2918,4.2931,4.2932,4.2913,4.2946,4.2955,4.3015,4.3053,4.298,4.2984,4.3174,4.3178,4.3182,4.3235,0,0,0,0,0,0,4.278,4.2795,4.2825,4.285,4.2863,4.295,4.2903,4.2903,4.2926,4.2921,4.2946,4.2948,4.2945,4.3009,4.3019,4.3058,4.2988,4.317,4.3176,4.318,4.3229,4.324,4.3249,0,0,0,0,0,4.2775,4.2837,4.2827,4.2839,4.2901,4.2953,4.296,4.2957,4.2929,4.2959,4.2967,4.2947,4.3048,4.3015,4.3027,4.3067,4.3168,4.3174,4.318,4.3225,4.3238,4.3249,0,0,0,0,0,0,4.2815,4.284,4.2829,4.2901,4.2925,4.2947,4.2984,4.297,4.3002,4.2996,4.2989,4.2995,4.3058,4.3069,4.3032,4.3143,4.3103,4.3112,4.3133,4.3146,4.3155,4.3151,4.2991,0,0,0,0,0,4.2832,4.2874,4.2893,4.2954,4.2967,4.2974,4.2996,4.2991,4.3016,4.3025,4.3038,4.3062,4.3098,4.3123,4.3157,4.3231,4.3236,4.3265,4.3275,4.3283,4.329,4.333,4.3343,4.3203,4.3203,4.3203,0,0,4.2868,4.2887,4.2913,4.2963,4.2981,4.3023,4.2982,4.3028,4.3059,4.3032,4.309,4.31,4.3126,4.3194,4.3224,4.3204,4.333,4.329,4.3297,4.33,4.3337,4.3351,4.3362,4.3207,4.3206,4.3206,0,0,4.2955,4.2973,4.3027,4.3046,4.3075,4.3079,4.3092,4.3117,4.3123,4.3182,4.3162,4.3198,4.3262,4.3281,4.3299,4.3395,4.3377,4.3406,4.3457,4.3496,4.3507,4.3516,4.355,4.3562,4.3414,4.3414,4.3414,0,4.2995,4.3058,4.3055,4.3103,4.3125,4.3105,4.3158,4.3177,4.3215,4.3231,4.3209,4.3289,4.3305,4.3376,4.34,4.3415,4.3429,4.3403,4.3506,4.3515,4.3524,4.3556,4.3569,4.3417,4.3417,4.3416,4.3416,0,4.3106,4.3151,4.319,4.323,4.3256,4.3306,4.331,4.3337,4.3331,4.3337,4.3397,4.3416,4.3454,4.3471,4.3464,4.3542,4.3529,4.3507,4.3466,4.3541,4.3571,4.3583,4.3422,4.3421,4.342,4.3419,0,0,4.3218,4.3256,4.3271,4.3289,4.332,4.3353,4.3403,4.3442,4.3465,4.3492,4.3533,4.3588,4.3568,4.3589,4.3584,4.3618,4.3693,4.3592,4.3592,4.3609,4.3779,4.3795,4.381,4.3682,4.3684,4.3686,4.3777,0,4.3306,4.3394,4.3393,4.3474,4.3514,4.3496,4.3539,4.3562,4.357,4.3604,4.3612,4.3651,4.3622,4.3634,4.3668,4.3677,4.3726,4.367,4.3718,4.372,4.3712,4.3825,4.3842,4.3927,4.3788,4.379,4.3792,0,4.3421,4.3453,4.3539,4.3564,4.3581,4.362,4.3656,4.369,4.3716,4.3719,4.3743,4.3733,4.3782,4.3742,4.381,4.3771,4.3791,4.3799,4.3802,4.3805,4.376,4.3831,4.3954,4.3966,4.381,4.3809,4.3808,0,4.3493,4.3559,4.3618,4.3634,4.3665,4.3693,4.3707,4.3731,4.3755,4.3786,4.3801,4.3837,4.3856,4.3884,4.3884,4.3855,4.3953,4.3912,4.3956,4.3956,4.3976,4.3975,4.4103,4.399,4.399,4.399,4.399,0,4.3591,4.3644,4.3651,4.3688,4.3746,4.3745,4.3802,4.3813,4.3835,4.3873,4.3859,4.3894,4.3893,4.3928,4.3929,4.3984,4.3993,4.3997,4.3996,4.3998,4.3997,4.401,4.4003,4.3993,4.3992,4.3992,4.3991,0,4.3682,4.3689,4.3753,4.3778,4.3786,4.3827,4.3849,4.3883,4.389,4.3938,4.3949,4.3959,4.4001,4.4004,4.4051,4.4052,4.4119,4.4112,4.4111,4.4109,4.4153,4.4148,4.4293,4.4312,4.4187,4.4189,4.419,0,4.3744,4.3784,4.3814,4.3839,4.3856,4.3896,4.392,4.392,4.3946,4.3979,4.401,4.405,4.4083,4.415,4.4161,4.4197,4.4191,4.4239,4.4196,4.4196,4.4191,4.4188,4.4192,4.4247,4.4248,4.4249,4.425,0,4.3853,4.3854,4.3891,4.3929,4.3959,4.3989,4.4017,4.4038,4.4041,4.4071,4.4114,4.4139,4.4189,4.4229,4.4265,4.4278,4.4265,4.4264,4.4276,4.4277,4.4275,4.4277,4.4133,4.426,4.4259,4.4259,4.4258,4.4258,4.393,4.3966,4.3993,4.4034,4.4055,4.4082,4.4115,4.4127,4.4163,4.4205,4.4202,4.425,4.4275,4.4322,4.4338,4.4375,4.4358,4.4376,4.438,4.4384,4.4389,4.427,4.4381,4.4381,4.4381,4.4381,4.438,0,4.4038,4.4055,4.4093,4.4133,4.4166,4.4152,4.4182,4.421,4.4252,4.4277,4.431,4.436,4.4399,4.4414,4.4452,4.4478,4.4473,4.4488,4.4486,4.4489,4.4401,4.4387,4.4492,4.4492,4.4492,4.4492,4.4492,4.4492,4.4098,4.4157,4.4162,4.4231,4.4247,4.4295,4.4313,4.4337,4.4358,4.4414,4.4447,4.4457,4.4478,4.4518,4.4553,4.4556,4.457,4.4588,4.4589,4.4506,4.4495,4.4484,4.4471,4.4591,4.4591,4.4673,4.4674,4.4674]}]]